sat.trackr.live / text

‹ back to catalog

STARLINK-32805

NORAD 62740 · 2025-014F

PAYLOAD ACTIVE UNKNOWN

§ Identity

Operator
Country
US
Launch date
2025-01-21
Launch site
AFETR
Launch vehicle
Mass (kg)
RCS (m²)

Purposes: comms

External: N2YO · Heavens-Above · Gunter

§ Orbital elements

Epoch: 2026-05-25T04:42:49.546656Z

Period
94.27 min
Inclination
43.0000°
Eccentricity
0.0001151
Mean motion
15.27594937 rev/d
Perigee alt
482.2 km
Apogee alt
483.8 km
Semi-major
6,861.1 km
B*
9.1007e-4
RAAN
82.7108°
Arg perigee
258.1539°
Mean anomaly
101.9184°
Rev number
7,495

§ Raw data

STARLINK-328051 62740U 25014F   26145.19640679  .00024877  00000+0  91007-3 0  99982 62740  43.0000  82.7108 0001151 258.1539 101.9184 15.27594937 74956

JSON: /api/v1/satellites/62740 · /tle

For live sub-satellite position, see the globe view (requires WebGL).

§ Visibility from observer

Set your observer location to see the next 7 days of passes ≥ 10°. The values pass through the URL so the page stays shareable.

No JS? Fill the form by hand. The geolocation button needs JavaScript.